Weather History for KPBG - April, 2014

Change the Weather History Date:

Monday, April 14, 2014

  Actual Average Record
Temperature  
Mean Temperature 59 °F 42 °F  
Max Temperature 78 °F 53 °F 83 °F (1968)
Min Temperature 39 °F 32 °F 19 °F (1992)
Degree Days  
Heating Degree Days 6 23  
Month to date heating degree days 320 364  
Since 1 July heating degree days 7511 7047  
Cooling Degree Days 0 0  
Month to date cooling degree days 0 0  
Year to date cooling degree days 0 0  
Growing Degree Days 8 (Base 50)    
Moisture  
Dew Point 46 °F    
Average Humidity 72    
Maximum Humidity 100    
Minimum Humidity 43    
Precipitation  
Precipitation 0.09 in - 0.78 in (1961)
Month to date precipitation 1.14  
Year to date precipitation 3.13  
Sea Level Pressure  
Sea Level Pressure 29.74 in    
Wind  
Wind Speed 10 mph (SSE)    
Max Wind Speed 28 mph    
Max Gust Speed 35 mph    
Visibility 5 miles    
Events Fog , Rain , Thunderstorm    
T = Trace of Precipitation, MM = Missing Value Source: NWS Daily Summary

Daily Weather History Graph

Daily Weather History Graph

Search for Another Location

Airport or City:

Trip Planner

Search our weather history database for the weather conditions in past years. The results will help you decide how hot, cold, wet, or windy it might be!

Date:

Astronomy

Apr. 14, 2014 Rise Set
Actual Time 6:11 AM EDT 7:37 PM EDT
Civil Twilight 5:41 AM EDT 8:08 PM EDT
Nautical Twilight 5:04 AM EDT 8:44 PM EDT
Astronomical Twilight 4:25 AM EDT 9:24 PM EDT
Moon 7:13 PM EDT (4/14) 5:44 AM EDT (4/14)
Length of Visible Light 14h 26m
Length of Day
13h 26m
Full, 100% of the Moon is Illuminated
Apr 14
Full
Apr 15
Full
Apr 22
Last Quarter
Apr 29
New
May 6
First Quarter

Hourly Weather History & Observations

Time (EDT) Temp. Windchill Dew Point Humidity Pressure Visibility Wind Dir Wind Speed Gust Speed Precip Events Conditions
12:32 AM 43.0 °F 41.3 °F 42.1 °F 97% 29.87 in 3.0 mi West 3.5 mph - 0.01 in Rain , Thunderstorm Light Thunderstorms and Rain
12:53 AM 43.0 °F 41.3 °F 42.1 °F 97% 29.88 in 5.0 mi ESE 3.5 mph - 0.01 in Thunderstorm Overcast
1:24 AM 44.1 °F - 43.0 °F 96% 29.86 in 4.0 mi Calm Calm - 0.04 in Rain Light Rain
1:53 AM 44.1 °F 42.5 °F 43.0 °F 96% 29.86 in 3.0 mi SW 3.5 mph - 0.04 in   Overcast
2:33 AM 43.0 °F 41.3 °F 43.0 °F 100% 29.84 in 1.8 mi South 3.5 mph - N/A   Overcast
2:38 AM 43.0 °F 41.3 °F 42.1 °F 97% 29.84 in 0.8 mi South 3.5 mph - N/A   Mostly Cloudy
2:46 AM 42.1 °F 39.2 °F 41.0 °F 96% 29.84 in 0.2 mi South 4.6 mph - N/A Fog Fog
2:53 AM 43.0 °F - 42.1 °F 97% 29.84 in 0.5 mi Calm Calm - N/A Fog Fog
3:01 AM 41.0 °F - 41.0 °F 100% 29.83 in 0.8 mi Calm Calm - N/A   Partly Cloudy
3:08 AM 41.0 °F - 41.0 °F 100% 29.83 in 0.2 mi Calm Calm - N/A Fog Fog
3:53 AM 39.9 °F - 39.9 °F 100% 29.82 in 0.2 mi Calm Calm - N/A Fog Fog
5:01 AM 39.9 °F - 39.0 °F 97% 29.78 in 1.0 mi Calm Calm - N/A   Mist
5:06 AM 39.9 °F 36.7 °F 39.0 °F 97% 29.78 in 2.0 mi SSE 4.6 mph - N/A   Scattered Clouds
5:20 AM 39.9 °F - 39.0 °F 97% 29.78 in 3.0 mi Calm Calm - N/A   Clear
5:53 AM 39.0 °F - 39.0 °F 100% 29.76 in 2.5 mi Calm Calm - N/A   Clear
6:02 AM 39.0 °F - 39.0 °F 100% 29.75 in 3.0 mi Calm Calm - N/A   Clear
6:22 AM 39.0 °F - 39.0 °F 100% 29.75 in 1.8 mi Calm Calm - N/A   Clear
6:53 AM 39.9 °F - 39.9 °F 100% 29.75 in 2.0 mi Calm Calm - N/A   Clear
7:17 AM 39.9 °F - 39.9 °F 100% 29.75 in 3.0 mi Calm Calm - N/A   Clear
7:25 AM 39.9 °F - 39.9 °F 100% 29.75 in 2.5 mi Calm Calm - N/A   Clear
7:35 AM 41.0 °F - 41.0 °F 100% 29.75 in 3.0 mi Calm Calm - N/A   Clear
7:53 AM 43.0 °F - 42.1 °F 97% 29.75 in 4.0 mi Calm Calm - N/A   Clear
8:53 AM 53.1 °F - 52.0 °F 96% 29.73 in 7.0 mi Calm Calm - N/A   Clear
9:53 AM 63.0 °F - 54.0 °F 72% 29.72 in 10.0 mi SE 9.2 mph - N/A   Clear
10:53 AM 66.9 °F - 54.0 °F 63% 29.69 in 10.0 mi SSE 12.7 mph - N/A   Clear
11:53 AM 69.1 °F - 52.0 °F 54% 29.68 in 10.0 mi ESE 8.1 mph - N/A   Clear
12:53 PM 75.0 °F - 54.0 °F 48% 29.65 in 10.0 mi SSE 23.0 mph 29.9 mph N/A   Clear
2:53 PM 77.0 °F - 53.1 °F 43% 29.60 in 10.0 mi SSE 25.3 mph 33.4 mph N/A   Clear
3:53 PM 77.0 °F - 53.1 °F 43% 29.58 in 10.0 mi SSE 25.3 mph 35.7 mph N/A   Clear
4:53 PM 75.9 °F - 53.1 °F 45% 29.55 in 10.0 mi SSE 25.3 mph 33.4 mph N/A   Clear
5:53 PM 75.0 °F - 52.0 °F 44% 29.55 in 10.0 mi South 19.6 mph 28.8 mph N/A   Clear
6:53 PM 73.9 °F - 50.0 °F 43% 29.57 in 10.0 mi South 18.4 mph 27.6 mph N/A   Partly Cloudy
7:53 PM 72.0 °F - 50.0 °F 46% 29.59 in 10.0 mi South 13.8 mph 26.5 mph N/A   Mostly Cloudy
8:53 PM 62.1 °F - 57.9 °F 86% 29.68 in 8.0 mi WSW 10.4 mph 18.4 mph 0.03 in Rain Light Rain
9:53 PM 60.1 °F - 57.0 °F 90% 29.68 in 10.0 mi SSE 6.9 mph - 0.02 in Rain Light Rain
10:53 PM 59.0 °F - 55.9 °F 90% 29.67 in 10.0 mi SE 9.2 mph - 0.00 in   Mostly Cloudy
11:53 PM 55.0 °F - 54.0 °F 96% 29.67 in 10.0 mi SSE 4.6 mph - N/A   Partly Cloudy